Location: Glencliff
(36.1226°N, 86.7183°W)
Time: 11:16:29
(UTC+00:00)

CZ-2D R/B - Pass Details

Date: 25 August 2019
Orbit: 792 x 845 km, 98.6° (Epoch: 21 September)

Event Time Altitude Azimuth Distance (km) Brightness Sun altitude
Rises 08:43:10 0° 355° (N) 3,390 5.8 -27.7°
Reaches altitude 10° 08:46:11 10° 339° (NNW) 2,444 4.8 -27.2°
Enters shadow 08:48:31 17° 315° (NW) 1,958 4.0 -26.9°
